TimeBST,TemperatureF,Dew PointF,Humidity,Sea Level PressureIn,VisibilityMPH,Wind Direction,Wind SpeedMPH,Gust SpeedMPH,PrecipitationIn,Events,Conditions,WindDirDegrees,DateUTC
6:50 AM,44.6,41.0,87,29.68,-9999.0,SW,6.9,-,N/A,,Clear,230,2012-10-04 05:50:00
7:20 AM,42.8,39.2,87,29.68,-9999.0,SW,5.8,-,N/A,,Clear,220,2012-10-04 06:20:00
7:50 AM,44.6,42.8,93,29.71,6.2,SSW,4.6,-,N/A,,Partly Cloudy,200,2012-10-04 06:50:00
8:20 AM,48.2,42.8,82,29.71,6.2,SSW,6.9,-,N/A,,Partly Cloudy,210,2012-10-04 07:20:00
8:50 AM,50.0,44.6,82,29.74,6.2,SW,6.9,-,N/A,,Partly Cloudy,230,2012-10-04 07:50:00
9:20 AM,50.0,44.6,82,29.74,6.2,SW,6.9,-,N/A,,Partly Cloudy,230,2012-10-04 08:20:00
9:50 AM,51.8,44.6,76,29.74,6.2,SW,6.9,-,N/A,,Partly Cloudy,220,2012-10-04 08:50:00
10:20 AM,53.6,46.4,77,29.74,6.2,SW,6.9,-,N/A,,Partly Cloudy,230,2012-10-04 09:20:00
10:50 AM,55.4,44.6,67,29.77,6.2,SW,8.1,-,N/A,,Partly Cloudy,220,2012-10-04 09:50:00
11:20 AM,55.4,46.4,72,29.77,6.2,SW,9.2,-,N/A,,Partly Cloudy,220,2012-10-04 10:20:00
11:50 AM,55.4,46.4,72,29.80,6.2,SW,8.1,-,N/A,,Scattered Clouds,220,2012-10-04 10:50:00
12:20 PM,57.2,46.4,67,29.80,6.2,WSW,8.1,-,N/A,,Scattered Clouds,240,2012-10-04 11:20:00
12:50 PM,59.0,44.6,59,29.80,6.2,WSW,8.1,-,N/A,,Scattered Clouds,240,2012-10-04 11:50:00
1:20 PM,60.8,44.6,55,29.80,6.2,WSW,9.2,-,N/A,,Scattered Clouds,240,2012-10-04 12:20:00
1:50 PM,59.0,42.8,55,29.80,6.2,SW,9.2,-,N/A,,Scattered Clouds,230,2012-10-04 12:50:00
2:20 PM,60.8,42.8,52,29.80,6.2,WSW,8.1,-,N/A,,Partly Cloudy,250,2012-10-04 13:20:00
2:50 PM,60.8,41.0,48,29.80,6.2,WSW,10.4,-,N/A,,Partly Cloudy,240,2012-10-04 13:50:00
3:20 PM,59.0,42.8,55,29.80,6.2,WSW,9.2,-,N/A,,Partly Cloudy,250,2012-10-04 14:20:00
3:50 PM,59.0,46.4,63,29.80,6.2,SW,11.5,-,N/A,,Partly Cloudy,220,2012-10-04 14:50:00
4:20 PM,57.2,46.4,67,29.77,6.2,SSW,10.4,-,N/A,,Partly Cloudy,210,2012-10-04 15:20:00
4:50 PM,57.2,46.4,67,29.77,6.2,SSW,9.2,-,N/A,,Partly Cloudy,200,2012-10-04 15:50:00
5:20 PM,55.4,44.6,67,29.80,6.2,SSW,10.4,-,N/A,,Partly Cloudy,200,2012-10-04 16:20:00
5:50 PM,55.4,44.6,67,29.80,6.2,SSW,9.2,-,N/A,,Partly Cloudy,210,2012-10-04 16:50:00
6:20 PM,55.4,46.4,72,29.77,6.2,SSW,8.1,-,N/A,,Partly Cloudy,200,2012-10-04 17:20:00
6:50 PM,55.4,46.4,72,29.77,6.2,South,6.9,-,N/A,,Partly Cloudy,190,2012-10-04 17:50:00